sat.trackr.live / text

‹ back to catalog

ONEWEB-0177

NORAD 48074 · 2021-025AJ

PAYLOAD ACTIVE UNKNOWN

§ Identity

Operator
Country
UK
Launch date
2021-03-25
Launch site
VOSTO
Launch vehicle
Mass (kg)
RCS (m²)

Purposes: comms

External: N2YO · Heavens-Above · Gunter

§ Orbital elements

Epoch: 2026-05-25T00:23:05.175168Z

Period
109.63 min
Inclination
87.8944°
Eccentricity
0.0001794
Mean motion
13.13469994 rev/d
Perigee alt
1,208.4 km
Apogee alt
1,211.1 km
Semi-major
7,587.9 km
B*
5.2092e-4
RAAN
324.8373°
Arg perigee
99.5289°
Mean anomaly
260.6043°
Rev number
25,063

§ Raw data

ONEWEB-01771 48074U 21025AJ  26145.01603212  .00000203  00000+0  52092-3 0  99912 48074  87.8944 324.8373 0001794  99.5289 260.6043 13.13469994250634

JSON: /api/v1/satellites/48074 · /tle

For live sub-satellite position, see the globe view (requires WebGL).

§ Visibility from observer

Set your observer location to see the next 7 days of passes ≥ 10°. The values pass through the URL so the page stays shareable.

No JS? Fill the form by hand. The geolocation button needs JavaScript.